609  
SXUS52 KJAX 230813  
OSOJAX  
OTHER SURFACE OBSERVATIONS  
NATIONAL WEATHER SERVICE JACKSONVILLE FL  
400 AM EDT THU MAR 23 2017  
 
FLZ020>025-030>033-035>038-040-230900-   
..FLORIDA
 
 
 
CITY SKY/WX TMP DP RH WIND PRES REMARKS  
CECIL FIELD CLOUDY 61 57 88 CALM 30.20F  
HERLONG FIELD NOT AVBL  
FERNANDINA BCH NOT AVBL  
LAKE CITY FAIR 59 55 88 NE6 30.20S  
JUNIPER SPGS NOT AVBL  
BUNNELL NOT AVBL  
KEYSTONE HGTS FAIR 63 57 82 NE3 30.19F  

 
 
GAZ132>136-149>154-162>166-230900-   
..GEORGIA
 
 
 
CITY SKY/WX TMP DP RH WIND PRES REMARKS  
JESUP FAIR 59 52 77 NE5 30.27F  
HOMERVILLE FAIR 57 55 94 NE5 30.24F  
SWAINSBORO CLOUDY 57 37 47 E7 30.32S  
CORDELE NOT AVBL  
EASTMAN CLOUDY 61 38 41 E7 30.31F  

 
 
PLEASE NOTE: THESE OBSERVATIONS ARE NOT QUALITY CONTROLLED AND MAY  
NOT BE AVAILABLE AT ALL TIMES.  

 
 
 
CLICK HERE TO GO TO PREVIOUS BULLETINS.

The Nexlab FL Page
The Nexlab GA Page Main Text Page